Latest Coastal Weather Observations for Cape Otway

IDV60701

Issued at 5:05 pm EDT Sunday 26 October 2014 (issued every 10 minutes, with the page automatically refreshed every 10 minutes)

About coastal observations | Map of coastal stations | Coastal observations for VIC | Marine services | Other Formats
Station Details ID: 090015 Name: CAPE OTWAY LIGHTHOUSE Lat: -38.86 Lon: 143.51 Height: 82.0 m
Data from the previous 72 hours. | See also: Recent months at Cape Otway
Date/Time
EDT
Temp

°C
Wind Pressure Rain
since 9am
mm
Weather Cloud Vis
km
Sea
Height
m
Swell
Dir
 
Speed
knots
Gust
knots
hPa Trend Height
m
Period
s
Dir
26/05:00pm 15.0 ENE 13 19 1008.9 - 0.0 - - - - - - -
26/04:30pm 14.5 ENE 12 19 1009.6 - 0.0 - - - - - - -
26/04:00pm 14.2 ENE 11 17 1010.1 - 0.0 - - - - - - -
26/03:30pm 14.4 ENE 13 17 1010.8 - 0.0 - - - - - - -
26/03:00pm 14.4 E 11 18 1011.2 F 0.0 Fine Partly cloudy 20 2 2.0 8 S
26/02:30pm 15.0 E 9 14 1011.9 - 0.0 - - - - - - -
26/02:00pm 13.6 E 10 14 1012.7 - 0.0 - - - - - - -
26/01:30pm 13.6 ENE 10 14 1012.8 - 0.0 - - - - - - -
26/01:00pm 14.0 E 11 17 1013.3 - 0.0 - - - - - - -
26/12:30pm 14.4 E 12 16 1013.2 - 0.0 - - - - - - -
26/12:00pm 13.9 ESE 12 14 1013.5 - 0.0 - - - - - - -
26/11:30am 14.1 ESE 10 12 1013.9 - 0.0 - - - - - - -
26/11:00am 14.4 ESE 8 11 1014.0 - 0.0 - - - - - - -
26/10:30am 14.5 ESE 6 9 1014.4 - 0.0 - - - - - - -
26/10:00am 14.0 SE 6 9 1014.4 - 0.0 - - - - - - -
26/09:30am 13.3 S 3 7 1014.5 - 0.0 - - - - - - -
26/09:00am 12.9 SW 5 8 1014.7 R 0.0 Fine Mostly cloudy 20 1 1.0 8 S
26/08:30am 12.4 SSW 5 9 1014.9 - 0.0 - - - - - - -
26/08:00am 12.5 SW 6 8 1014.8 - 0.0 - - - - - - -
26/07:30am 12.2 CALM 0 0 1014.4 - 0.0 - - - - - - -
26/07:00am 11.9 CALM 0 0 1014.2 - 0.0 - - - - - - -
26/06:30am 11.7 NNE 1 3 1013.6 - 0.0 - - - - - - -
26/06:00am 11.7 ENE 3 5 1013.4 - 0.0 - - - - - - -
26/05:30am 12.0 CALM 0 0 1013.7 - 0.0 - - - - - - -
26/05:00am 11.9 SSE 1 4 1013.8 - 0.0 - - - - - - -
26/04:30am 12.0 CALM 0 0 1014.0 - 0.0 - - - - - - -
26/04:00am 12.1 SSE 1 3 1013.9 - 0.0 - - - - - - -
26/03:30am 12.1 S 3 5 1014.1 - 0.0 - - - - - - -
26/03:00am 12.2 ESE 6 8 1014.2 - 0.0 - - - - - - -
26/02:30am 12.2 ESE 6 10 1014.5 - 0.0 - - - - - - -
26/02:00am 12.3 ESE 7 11 1014.8 - 0.0 - - - - - - -
26/01:30am 12.2 ESE 7 10 1015.4 - 0.0 - - - - - - -
26/01:00am 12.2 ESE 7 9 1016.0 - 0.0 - - - - - - -
26/12:30am 12.0 E 4 7 1016.3 - 0.0 - - - - - - -
26/12:00am 12.0 SE 3 7 1016.4 - 0.0 - - - - - - -
 
Date/Time
EDT
Temp

°C
Wind Pressure Rain
since 9am
mm
Weather Cloud Vis
km
Sea
Height
m
Swell
Dir
 
Speed
knots
Gust
knots
hPa Trend Height
m
Period
s
Dir
25/11:30pm 12.0 SE 5 8 1016.4 - 0.0 - - - - - - -
25/11:00pm 12.0 ENE 4 6 1016.7 - 0.0 - - - - - - -
25/10:30pm 12.2 ESE 5 8 1016.9 - 0.0 - - - - - - -
25/10:00pm 12.2 ESE 4 7 1017.4 - 0.0 - - - - - - -
25/09:30pm 12.3 S 1 6 1017.5 - 0.0 - - - - - - -
25/09:00pm 12.3 SSW 2 6 1017.3 - 0.0 - - - - - - -
25/08:30pm 12.4 SSW 6 9 1017.1 - 0.0 - - - - - - -
25/08:00pm 12.5 SW 5 9 1016.8 - 0.0 - - - - - - -
25/07:30pm 13.0 SW 5 7 1016.5 - 0.0 - - - - - - -
25/07:00pm 13.2 SW 4 7 1016.5 - 0.0 - - - - - - -
25/06:30pm 13.5 WSW 2 5 1016.4 - 0.0 - - - - - - -
25/06:00pm 13.4 SW 3 7 1016.1 - 0.0 - - - - - - -
25/05:30pm 13.6 SSW 2 4 1016.5 - 0.0 - - - - - - -
25/05:00pm 13.4 SW 4 7 1016.3 - 0.0 - - - - - - -
25/04:30pm 14.1 SW 2 5 1016.3 - 0.0 - - - - - - -
25/04:00pm 13.9 SW 3 7 1016.3 - 0.0 - - - - - - -
25/03:30pm 14.3 SSW 6 9 1016.7 - 0.0 - - - - - - -
25/03:00pm 15.0 SSW 5 9 1016.9 F 0.0 Fine Mostly cloudy 20 1 1.0 8 S
25/02:30pm 15.4 S 3 6 1017.0 - 0.0 - - - - - - -
25/02:00pm 15.3 S 3 5 1017.2 - 0.0 - - - - - - -
25/01:30pm 15.6 S 3 5 1017.4 - 0.0 - - - - - - -
25/01:00pm 14.6 S 4 5 1017.7 - 0.0 - - - - - - -
25/12:30pm 14.5 SE 4 5 1017.8 - 0.0 - - - - - - -
25/12:00pm 14.7 SE 5 7 1018.0 - 0.0 - - - - - - -
25/11:30am 14.2 ESE 6 8 1017.8 - 0.0 - - - - - - -
25/11:00am 14.8 S 4 7 1018.0 - 0.0 - - - - - - -
25/10:30am 14.5 S 3 7 1018.0 - 0.0 - - - - - - -
25/10:00am 13.8 CALM 0 0 1018.4 - 0.0 - - - - - - -
25/09:30am 13.3 SE 2 5 1018.4 - 0.0 - - - - - - -
25/09:00am 13.1 SSE 2 3 1018.3 R 0.0 Fine Mostly cloudy 20 1 1.0 8 S
25/08:30am 13.0 SE 2 5 1018.1 - 0.0 - - - - - - -
25/08:00am 12.8 WSW 3 5 1018.0 - 0.0 - - - - - - -
25/07:30am 12.6 SSW 6 8 1017.9 - 0.0 - - - - - - -
25/07:00am 12.6 SW 4 6 1017.7 - 0.0 - - - - - - -
25/06:30am 12.5 SW 8 12 1017.3 - 0.0 - - - - - - -
25/06:00am 12.5 SSW 8 11 1016.8 - 0.0 - - - - - - -
25/05:30am 12.7 SW 8 12 1016.6 - 0.0 - - - - - - -
25/05:00am 12.7 SSW 8 13 1016.3 - 0.0 - - - - - - -
25/04:30am 12.8 SSW 10 14 1016.1 - 0.0 - - - - - - -
25/04:00am 12.7 SW 7 12 1016.2 - 0.0 - - - - - - -
25/03:30am 12.8 WSW 12 17 1016.2 - 0.0 - - - - - - -
25/03:00am 13.0 WSW 12 19 1016.2 - 0.0 - - - - - - -
25/02:30am 12.9 SW 12 16 1016.2 - 0.0 - - - - - - -
25/02:00am 13.1 SW 17 21 1016.5 - 0.0 - - - - - - -
25/01:30am 13.3 W 13 16 1016.7 - 0.0 - - - - - - -
25/01:00am 13.5 WSW 13 21 1016.7 - 0.0 - - - - - - -
25/12:30am 13.4 WSW 15 21 1016.7 - 0.0 - - - - - - -
25/12:00am 13.3 W 15 20 1016.5 - 0.0 - - - - - - -
 
Date/Time
EDT
Temp

°C
Wind Pressure Rain
since 9am
mm
Weather Cloud Vis
km
Sea
Height
m
Swell
Dir
 
Speed
knots
Gust
knots
hPa Trend Height
m
Period
s
Dir
24/11:30pm 13.3 WSW 18 24 1016.3 - 0.0 - - - - - - -
24/11:00pm 13.5 W 17 25 1016.0 - 0.0 - - - - - - -
24/10:30pm 14.0 W 15 23 1015.8 - 0.0 - - - - - - -
24/10:00pm 13.7 W 16 22 1015.4 - 0.0 - - - - - - -
24/09:30pm 13.8 W 17 22 1015.2 - 0.0 - - - - - - -
24/09:00pm 13.8 W 17 23 1014.8 - 0.0 - - - - - - -
24/08:30pm 14.0 W 17 23 1014.5 - 0.0 - - - - - - -
24/08:00pm 14.0 W 17 24 1014.2 - 0.0 - - - - - - -
24/07:30pm 14.2 W 17 22 1013.7 - 0.0 - - - - - - -
24/07:00pm 14.3 W 12 19 1013.2 - 0.0 - - - - - - -
24/06:30pm 14.1 W 14 22 1013.1 - 0.0 - - - - - - -
24/06:00pm 14.1 W 17 23 1012.8 - 0.0 - - - - - - -
24/05:30pm 14.3 W 17 23 1012.5 - 0.0 - - - - - - -
24/05:04pm 14.5 W 15 25 1012.1 - 0.0 - - - - - - -
24/05:02pm 14.5 W 15 25 1012.1 - 0.0 - - - - - - -
24/05:00pm 14.7 WNW 14 23 1012.1 - 0.0 - - - - - - -
24/04:30pm 14.7 WNW 15 23 1011.7 - 0.0 - - - - - - -
24/04:00pm 15.1 WNW 14 20 1011.3 - 0.0 - - - - - - -
24/03:30pm 15.5 W 15 20 1011.2 - 0.0 - - - - - - -
24/03:00pm 17.8 WNW 13 18 1011.1 R 0.0 Distant fog Mostly clear 20 2 2.0 9 S
24/02:30pm 18.2 WNW 13 18 1011.2 - 0.0 - - - - - - -
24/02:00pm 18.5 W 13 21 1011.5 - 0.0 - - - - - - -
24/01:30pm 18.6 WNW 12 17 1011.5 - 0.0 - - - - - - -
24/01:00pm 17.7 W 9 11 1011.4 - 0.0 - - - - - - -
24/12:30pm 16.6 W 7 10 1011.7 - 0.0 - - - - - - -
24/12:00pm 15.6 WSW 7 8 1011.4 - 0.0 - - - - - - -
24/11:30am 15.3 WSW 4 5 1011.5 - 0.0 - - - - - - -
24/11:00am 15.4 W 6 9 1011.8 - 0.0 - - - - - - -
24/10:30am 16.3 WSW 6 7 1011.7 - 0.0 - - - - - - -
24/10:00am 15.9 W 5 7 1012.1 - 0.0 - - - - - - -
24/09:30am 15.8 W 2 5 1011.9 - 0.0 - - - - - - -
24/09:00am 15.6 ENE 6 8 1012.1 F 0.0 Fine Mostly cloudy 10 1 2.0 9 S
24/08:30am 15.5 ENE 8 12 1011.9 - 0.0 - - - - - - -
24/08:00am 14.9 ENE 10 14 1012.1 - 0.0 - - - - - - -
24/07:30am 14.6 ENE 14 21 1011.7 - 0.0 - - - - - - -
24/07:00am 14.5 E 15 21 1011.4 - 0.0 - - - - - - -
24/06:30am 14.5 E 16 22 1011.6 - 0.0 - - - - - - -
24/06:22am 14.4 E 16 26 1011.5 - 0.0 - - - - - - -
24/06:20am 14.4 E 16 26 1011.5 - 0.0 - - - - - - -
24/06:00am 14.4 E 18 25 1011.7 - 0.0 - - - - - - -
24/05:31am 14.3 E 18 28 1011.6 - 0.0 - - - - - - -
24/05:30am 14.3 E 18 28 1011.6 - 0.0 - - - - - - -
24/05:02am 14.3 E 18 29 1011.8 - 0.0 - - - - - - -
24/05:00am 14.3 E 18 29 1011.8 - 0.0 - - - - - - -
24/04:49am 14.3 E 17 27 1012.1 - 0.0 - - - - - - -
24/04:47am 14.3 E 17 27 1012.1 - 0.0 - - - - - - -
24/04:30am 14.3 E 18 26 1012.3 - 0.0 - - - - - - -
24/04:00am 14.4 E 19 29 1012.4 - 0.0 - - - - - - -
24/03:49am 14.3 E 19 29 1012.4 - 0.0 - - - - - - -
24/03:30am 14.3 E 20 29 1012.5 - 0.0 - - - - - - -
24/03:01am 14.3 E 21 31 1012.8 - 0.0 - - - - - - -
24/03:00am 14.3 E 22 31 1012.8 - 0.0 - - - - - - -
24/02:30am 14.2 E 22 34 1012.9 - 0.0 - - - - - - -
24/02:00am 14.2 E 20 32 1013.3 - 0.0 - - - - - - -
24/01:30am 14.2 E 21 31 1014.2 - 0.0 - - - - - - -
24/01:00am 14.2 E 20 31 1014.7 - 0.0 - - - - - - -
24/12:30am 14.1 E 19 30 1014.9 - 0.0 - - - - - - -
24/12:04am 14.1 E 19 30 1015.1 - 0.0 - - - - - - -
24/12:02am 14.1 E 20 30 1015.1 - 0.0 - - - - - - -
24/12:00am 14.2 E 20 27 1015.3 - 0.0 - - - - - - -
 
Date/Time
EDT
Temp

°C
Wind Pressure Rain
since 9am
mm
Weather Cloud Vis
km
Sea
Height
m
Swell
Dir
 
Speed
knots
Gust
knots
hPa Trend Height
m
Period
s
Dir
23/11:30pm 14.1 E 21 31 1015.5 - 0.0 - - - - - - -
23/11:04pm 14.2 E 20 32 1015.9 - 0.0 - - - - - - -
23/11:02pm 14.2 E 20 32 1015.9 - 0.0 - - - - - - -
23/11:00pm 14.2 E 20 29 1015.9 - 0.0 - - - - - - -
23/10:33pm 14.1 E 20 31 1016.3 - 0.0 - - - - - - -
23/10:31pm 14.1 E 20 31 1016.3 - 0.0 - - - - - - -
23/10:30pm 14.1 E 20 29 1016.3 - 0.0 - - - - - - -
23/10:00pm 14.1 E 20 33 1016.6 - 0.0 - - - - - - -
23/09:30pm 14.1 E 21 31 1016.6 - 0.0 - - - - - - -
23/09:00pm 14.1 E 19 31 1016.6 - 0.0 - - - - - - -
23/08:30pm 14.2 E 18 28 1016.6 - 0.0 - - - - - - -
23/08:00pm 14.2 E 17 28 1016.4 - 0.0 - - - - - - -
23/07:49pm 14.2 E 18 29 1016.4 - 0.0 - - - - - - -
23/07:47pm 14.2 E 18 29 1016.4 - 0.0 - - - - - - -
23/07:30pm 14.3 E 18 25 1016.5 - 0.0 - - - - - - -
23/07:09pm 14.3 E 19 29 1016.5 - 0.0 - - - - - - -
23/07:07pm 14.3 E 19 29 1016.5 - 0.0 - - - - - - -
23/07:00pm 14.3 E 18 26 1016.5 - 0.0 - - - - - - -
23/06:38pm 14.6 E 17 28 1016.6 - 0.0 - - - - - - -
23/06:30pm 14.6 E 18 26 1016.7 - 0.0 - - - - - - -
23/06:11pm 14.5 E 17 27 1016.7 - 0.0 - - - - - - -
23/06:09pm 14.5 E 17 27 1016.7 - 0.0 - - - - - - -
23/06:00pm 14.5 E 18 26 1016.8 - 0.0 - - - - - - -
23/05:30pm 14.4 E 18 26 1017.1 - 0.0 - - - - - - -

Other Formats:

Comma delimited format used in spreadsheet applications
http://www.bom.gov.au/fwo/IDV60701/IDV60701.94842.axf

JavaScript Object Notation format (JSON) in row-major order
http://www.bom.gov.au/fwo/IDV60701/IDV60701.94842.json